{"data":{"norad_id":63354,"intl_designator":"2025-061D","name":"LEMUR-2-THERMORAPTOR","alt_names":[],"object_type":"PAYLOAD","status":"ACTIVE","operator":null,"country":"US","launch_date":"2025-03-26","launch_site_code":"RLLB","launch_vehicle":null,"mission":null,"orbit_class":"UNKNOWN","rcs_meters":null,"size_class":null,"mass_kg":null,"dimensions":null,"purposes":["earth_obs"],"wikipedia_slug":null,"has_3d_model":false,"image_url":null,"decayed_at":null,"tle_current":{"epoch":"2026-09-19T18:15:40.940064Z","epoch_age_seconds":82232,"freshness":"FRESH","line1":"1 63354U 25061D   26262.76089051  .00002742  00000+0  15141-3 0  9998","line2":"2 63354  97.5812 238.3901 0017050 291.8650  68.0768 15.14679454 81926","mean_motion":15.14679454,"eccentricity":0.001705,"inclination_deg":97.5812,"raan_deg":238.3901,"arg_perigee_deg":291.865,"mean_anomaly_deg":68.0768,"bstar":0.00015141,"rev_number":8192,"period_min":95.069619925009,"perigee_km":510.18723033855,"apogee_km":533.71653342577,"semimajor_km":6900.0888818822,"source":"CELESTRAK","updated_at":"2026-09-20T09:00:34.876145Z"}}}